| time (UTC) | temp F | wind direction | speed MPH | gust MPH | rain 1hr in | rain 24hr in | rain mn in | humidity % | barometer mb |
| 20260901063521 | 85 | 139 | 0.0 | 5.0 | 0.00 | 0.00 | 0.00 | 55 | 1016.0 |
| 20260901063046 | 85 | 167 | 0.0 | 5.0 | 0.00 | 0.00 | 0.00 | 55 | 1016.0 |
| 20260901062527 | 85 | 190 | 1.0 | 4.0 | 0.00 | 0.00 | 0.00 | 54 | 1015.9 |
| 20260901062029 | 85 | 166 | 1.0 | 4.0 | 0.00 | 0.00 | 0.00 | 54 | 1016.0 |
| 20260901061545 | 85 | 179 | 1.0 | 5.0 | 0.00 | 0.00 | 0.00 | 53 | 1016.0 |
| 20260901061024 | 85 | 181 | 1.0 | 5.0 | 0.00 | 0.00 | 0.00 | 53 | 1016.0 |
| 20260901060525 | 86 | 167 | 1.0 | 5.0 | 0.00 | 0.00 | 0.00 | 53 | 1015.9 |
| 20260901060044 | 86 | 153 | 2.0 | 5.0 | 0.00 | 0.00 | 0.00 | 52 | 1015.8 |
| 20260901055524 | 86 | 175 | 1.0 | 5.0 | 0.00 | 0.00 | 0.00 | 51 | 1015.7 |
| 20260901055025 | 86 | 159 | 0.0 | 5.0 | 0.00 | 0.00 | 0.00 | 51 | 1015.7 |
| 20260901054546 | 86 | 190 | 2.0 | 5.0 | 0.00 | 0.00 | 0.00 | 50 | 1015.7 |
| 20260901054025 | 86 | 170 | 2.0 | 9.0 | 0.00 | 0.00 | 0.00 | 50 | 1015.6 |
| 20260901053524 | 86 | 122 | 1.0 | 9.0 | 0.00 | 0.00 | 0.00 | 49 | 1015.6 |
| 20260901053047 | 87 | 168 | 1.0 | 6.0 | 0.00 | 0.00 | 0.00 | 49 | 1015.6 |
| 20260901052528 | 86 | 167 | 1.0 | 6.0 | 0.00 | 0.00 | 0.00 | 48 | 1015.6 |
| 20260901052024 | 86 | 157 | 1.0 | 6.0 | 0.00 | 0.00 | 0.00 | 48 | 1015.5 |
| 20260901051545 | 86 | 169 | 1.0 | 5.0 | 0.00 | 0.00 | 0.00 | 48 | 1015.5 |
| 20260901051026 | 87 | 165 | 1.0 | 5.0 | 0.00 | 0.00 | 0.00 | 47 | 1015.4 |
| 20260901050527 | 87 | 171 | 1.0 | 5.0 | 0.00 | 0.00 | 0.00 | 47 | 1015.4 |
| 20260901050047 | 87 | 163 | 1.0 | 5.0 | 0.00 | 0.00 | 0.00 | 47 | 1015.4 |
| 20260901045527 | 87 | 163 | 1.0 | 7.0 | 0.00 | 0.00 | 0.00 | 46 | 1015.3 |
| 20260901045025 | 87 | 156 | 2.0 | 7.0 | 0.00 | 0.00 | 0.00 | 46 | 1015.3 |
| 20260901044602 | 87 | 191 | 1.0 | 9.0 | 0.00 | 0.00 | 0.00 | 46 | 1015.3 |
| 20260901044025 | 87 | 194 | 1.0 | 9.0 | 0.00 | 0.00 | 0.00 | 46 | 1015.3 |
| 20260901043524 | 87 | 178 | 3.0 | 6.0 | 0.00 | 0.00 | 0.00 | 47 | 1015.4 |
| 20260901043044 | 87 | 107 | 1.0 | 3.0 | 0.00 | 0.00 | 0.00 | 48 | 1015.3 |
| 20260901042525 | 87 | 162 | 0.0 | 4.0 | 0.00 | 0.00 | 0.00 | 47 | 1015.2 |
| 20260901042021 | 87 | 0 | 0.0 | 4.0 | 0.00 | 0.00 | 0.00 | 47 | 1015.3 |
| 20260901041547 | 87 | 172 | 0.0 | 2.0 | 0.00 | 0.00 | 0.00 | 47 | 1015.2 |
| 20260901041024 | 87 | 0 | 0.0 | 2.0 | 0.00 | 0.00 | 0.00 | 47 | 1015.3 |
| 20260901040525 | 87 | 145 | 0.0 | 2.0 | 0.00 | 0.00 | 0.00 | 49 | 1015.3 |
| 20260901040049 | 87 | 98 | 0.0 | 2.0 | 0.00 | 0.00 | 0.00 | 49 | 1015.2 |
| 20260901035525 | 87 | 0 | 0.0 | 2.0 | 0.00 | 0.00 | 0.00 | 48 | 1015.2 |
| 20260901035023 | 87 | 0 | 0.0 | 2.0 | 0.00 | 0.00 | 0.00 | 48 | 1015.3 |
| 20260901034543 | 88 | 0 | 0.0 | 2.0 | 0.00 | 0.00 | 0.00 | 48 | 1015.3 |
| 20260901034023 | 88 | 0 | 0.0 | 3.0 | 0.00 | 0.00 | 0.00 | 47 | 1015.3 |
| 20260901033524 | 88 | 0 | 1.0 | 3.0 | 0.00 | 0.00 | 0.00 | 47 | 1015.2 |
| 20260901033047 | 88 | 109 | 0.0 | 2.0 | 0.00 | 0.00 | 0.00 | 47 | 1015.2 |
| 20260901032525 | 88 | 0 | 0.0 | 2.0 | 0.00 | 0.00 | 0.00 | 46 | 1015.2 |
| 20260901032025 | 89 | 0 | 0.0 | 3.0 | 0.00 | 0.00 | 0.00 | 45 | 1015.1 |
| 20260901031544 | 89 | 129 | 0.0 | 4.0 | 0.00 | 0.00 | 0.00 | 45 | 1015.2 |
| 20260901031053 | 89 | 111 | 1.0 | 4.0 | 0.00 | 0.00 | 0.00 | 45 | 1015.2 |
| 20260901030521 | 89 | 94 | 1.0 | 3.0 | 0.00 | 0.00 | 0.00 | 44 | 1015.2 |
| 20260901030050 | 89 | 154 | 0.0 | 2.0 | 0.00 | 0.00 | 0.00 | 43 | 1015.0 |
| 20260901025528 | 89 | 154 | 0.0 | 2.0 | 0.00 | 0.00 | 0.00 | 42 | 1014.9 |
| 20260901025025 | 90 | 196 | 0.0 | 2.0 | 0.00 | 0.00 | 0.00 | 42 | 1014.7 |
| 20260901024546 | 90 | 0 | 0.0 | 2.0 | 0.00 | 0.00 | 0.00 | 42 | 1014.6 |
| 20260901024027 | 90 | 163 | 0.0 | 2.0 | 0.00 | 0.00 | 0.00 | 42 | 1014.7 |
| 20260901023525 | 90 | 0 | 0.0 | 2.0 | 0.00 | 0.00 | 0.00 | 41 | 1014.6 |
| 20260901023045 | 90 | 0 | 0.0 | 2.0 | 0.00 | 0.00 | 0.00 | 41 | 1014.5 |
| 20260901022524 | 90 | 161 | 0.0 | 2.0 | 0.00 | 0.00 | 0.00 | 41 | 1014.5 |
| 20260901022023 | 91 | 0 | 0.0 | 2.0 | 0.00 | 0.00 | 0.00 | 41 | 1014.4 |
| 20260901021545 | 91 | 188 | 0.0 | 2.0 | 0.00 | 0.00 | 0.00 | 40 | 1014.4 |
| 20260901021025 | 91 | 199 | 0.0 | 2.0 | 0.00 | 0.00 | 0.00 | 40 | 1014.3 |
| 20260901020525 | 91 | 0 | 0.0 | 2.0 | 0.00 | 0.00 | 0.00 | 39 | 1014.3 |
| 20260901020049 | 91 | 163 | 1.0 | 3.0 | 0.00 | 0.00 | 0.00 | 39 | 1014.2 |
| 20260901015527 | 91 | 180 | 1.0 | 3.0 | 0.00 | 0.00 | 0.00 | 40 | 1014.2 |
| 20260901015025 | 92 | 0 | 0.0 | 3.0 | 0.00 | 0.00 | 0.00 | 39 | 1014.2 |
| 20260901014546 | 92 | 0 | 0.0 | 2.0 | 0.00 | 0.00 | 0.00 | 39 | 1014.1 |
| 20260901014024 | 92 | 0 | 0.0 | 2.0 | 0.00 | 0.00 | 0.00 | 39 | 1014.2 |
| 20260901013521 | 93 | 0 | 0.0 | 3.0 | 0.00 | 0.00 | 0.00 | 38 | 1014.1 |
| 20260901013046 | 93 | 161 | 1.0 | 5.0 | 0.00 | 0.00 | 0.00 | 38 | 1014.0 |
| 20260901012528 | 93 | 169 | 1.0 | 5.0 | 0.00 | 0.00 | 0.00 | 37 | 1014.0 |
| 20260901012025 | 94 | 194 | 0.0 | 4.0 | 0.00 | 0.00 | 0.00 | 37 | 1014.1 |
| 20260901011549 | 94 | 177 | 1.0 | 5.0 | 0.00 | 0.00 | 0.00 | 36 | 1013.9 |
| 20260901011025 | 94 | 167 | 2.0 | 5.0 | 0.00 | 0.00 | 0.00 | 37 | 1013.9 |
| 20260901010527 | 94 | 164 | 1.0 | 4.0 | 0.00 | 0.00 | 0.00 | 36 | 1013.9 |
| 20260901010048 | 95 | 168 | 1.0 | 6.0 | 0.00 | 0.00 | 0.00 | 36 | 1013.9 |
| 20260901005525 | 95 | 75 | 1.0 | 7.0 | 0.00 | 0.00 | 0.00 | 36 | 1013.9 |
| 20260901005025 | 95 | 178 | 1.0 | 8.0 | 0.00 | 0.00 | 0.00 | 36 | 1013.9 |
| 20260901004556 | 95 | 161 | 2.0 | 8.0 | 0.00 | 0.00 | 0.00 | 35 | 1013.8 |
| 20260901004026 | 95 | 158 | 1.0 | 6.0 | 0.00 | 0.00 | 0.00 | 36 | 1013.8 |
| 20260901003525 | 95 | 146 | 1.0 | 5.0 | 0.00 | 0.00 | 0.00 | 35 | 1013.8 |
| 20260901003044 | 95 | 157 | 0.0 | 5.0 | 0.00 | 0.00 | 0.00 | 35 | 1013.8 |
| 20260901002523 | 96 | 192 | 1.0 | 5.0 | 0.00 | 0.00 | 0.00 | 33 | 1013.8 |
| 20260901002023 | 96 | 173 | 1.0 | 5.0 | 0.00 | 0.00 | 0.00 | 34 | 1013.8 |
| 20260901001550 | 96 | 0 | 1.0 | 5.0 | 0.00 | 0.00 | 0.00 | 34 | 1013.8 |
| 20260901001027 | 96 | 175 | 0.0 | 7.0 | 0.00 | 0.00 | 0.00 | 33 | 1013.8 |
| 20260901000525 | 97 | 0 | 2.0 | 7.0 | 0.00 | 0.00 | 0.00 | 33 | 1013.8 |
| 20260901000047 | 97 | 184 | 2.0 | 6.0 | 0.00 | 0.00 | 0.00 | 32 | 1013.8 |
| 20260831235525 | 97 | 169 | 0.0 | 5.0 | 0.00 | 0.00 | 0.00 | 33 | 1013.7 |
| 20260831235025 | 97 | 199 | 2.0 | 7.0 | 0.00 | 0.00 | 0.00 | 33 | 1013.8 |
| 20260831234543 | 98 | 179 | 1.0 | 7.0 | 0.00 | 0.00 | 0.00 | 32 | 1013.9 |
| 20260831234024 | 98 | 184 | 1.0 | 5.0 | 0.00 | 0.00 | 0.00 | 32 | 1013.9 |
| 20260831233523 | 98 | 169 | 1.0 | 6.0 | 0.00 | 0.00 | 0.00 | 32 | 1013.9 |
| 20260831233041 | 98 | 247 | 2.0 | 7.0 | 0.00 | 0.00 | 0.00 | 31 | 1013.9 |
| 20260831232525 | 98 | 0 | 1.0 | 7.0 | 0.00 | 0.00 | 0.00 | 31 | 1013.8 |
| 20260831232025 | 98 | 196 | 2.0 | 7.0 | 0.00 | 0.00 | 0.00 | 31 | 1013.9 |
| 20260831231545 | 99 | 0 | 1.0 | 5.0 | 0.00 | 0.00 | 0.00 | 31 | 1013.8 |
| 20260831231027 | 99 | 158 | 1.0 | 6.0 | 0.00 | 0.00 | 0.00 | 31 | 1013.9 |
| 20260831230525 | 99 | 131 | 2.0 | 6.0 | 0.00 | 0.00 | 0.00 | 31 | 1013.8 |
| 20260831230046 | 99 | 0 | 1.0 | 11.0 | 0.00 | 0.00 | 0.00 | 30 | 1013.8 |
| 20260831225522 | 99 | 200 | 2.0 | 11.0 | 0.00 | 0.00 | 0.00 | 30 | 1013.9 |
| 20260831225034 | 99 | 147 | 1.0 | 6.0 | 0.00 | 0.00 | 0.00 | 31 | 1014.0 |
| 20260831224548 | 100 | 177 | 1.0 | 6.0 | 0.00 | 0.00 | 0.00 | 30 | 1014.0 |
| 20260831224026 | 100 | 200 | 1.0 | 7.0 | 0.00 | 0.00 | 0.00 | 29 | 1014.0 |
| 20260831223529 | 100 | 159 | 1.0 | 7.0 | 0.00 | 0.00 | 0.00 | 29 | 1014.1 |
| 20260831223045 | 101 | 192 | 2.0 | 7.0 | 0.00 | 0.00 | 0.00 | 29 | 1014.1 |
| 20260831222525 | 101 | 182 | 2.0 | 8.0 | 0.00 | 0.00 | 0.00 | 29 | 1014.2 |
| 20260831222025 | 101 | 159 | 3.0 | 8.0 | 0.00 | 0.00 | 0.00 | 30 | 1014.2 |
| 20260831221544 | 101 | 205 | 2.0 | 8.0 | 0.00 | 0.00 | 0.00 | 29 | 1014.2 |
| 20260831221025 | 101 | 197 | 1.0 | 8.0 | 0.00 | 0.00 | 0.00 | 29 | 1014.2 |
| 20260831220523 | 102 | 0 | 1.0 | 8.0 | 0.00 | 0.00 | 0.00 | 29 | 1014.2 |
| 20260831220044 | 103 | 182 | 1.0 | 8.0 | 0.00 | 0.00 | 0.00 | 28 | 1014.4 |
| 20260831215524 | 103 | 196 | 2.0 | 8.0 | 0.00 | 0.00 | 0.00 | 28 | 1014.3 |
| 20260831215026 | 103 | 188 | 1.0 | 10.0 | 0.00 | 0.00 | 0.00 | 28 | 1014.4 |
| 20260831214615 | 103 | 175 | 2.0 | 10.0 | 0.00 | 0.00 | 0.00 | 27 | 1014.4 |
| 20260831214026 | 103 | 210 | 2.0 | 10.0 | 0.00 | 0.00 | 0.00 | 27 | 1014.4 |
| 20260831213524 | 103 | 322 | 2.0 | 9.0 | 0.00 | 0.00 | 0.00 | 27 | 1014.5 |
| 20260831213044 | 103 | 175 | 2.0 | 8.0 | 0.00 | 0.00 | 0.00 | 26 | 1014.5 |
| 20260831212526 | 103 | 149 | 1.0 | 5.0 | 0.00 | 0.00 | 0.00 | 27 | 1014.5 |
| 20260831212028 | 103 | 0 | 1.0 | 6.0 | 0.00 | 0.00 | 0.00 | 26 | 1014.5 |
| 20260831211542 | 103 | 209 | 1.0 | 7.0 | 0.00 | 0.00 | 0.00 | 26 | 1014.6 |
| 20260831211023 | 103 | 287 | 2.0 | 7.0 | 0.00 | 0.00 | 0.00 | 26 | 1014.7 |
| 20260831210522 | 103 | 192 | 2.0 | 10.0 | 0.00 | 0.00 | 0.00 | 26 | 1014.8 |
| 20260831210047 | 103 | 135 | 3.0 | 10.0 | 0.00 | 0.00 | 0.00 | 25 | 1014.9 |
| 20260831205525 | 103 | 205 | 2.0 | 7.0 | 0.00 | 0.00 | 0.00 | 27 | 1014.9 |
| 20260831205025 | 103 | 0 | 1.0 | 8.0 | 0.00 | 0.00 | 0.00 | 28 | 1015.0 |
| 20260831204550 | 102 | 136 | 2.0 | 8.0 | 0.00 | 0.00 | 0.00 | 29 | 1015.1 |
| 20260831204026 | 102 | 0 | 1.0 | 7.0 | 0.00 | 0.00 | 0.00 | 29 | 1015.3 |
| 20260831203524 | 101 | 130 | 2.0 | 7.0 | 0.00 | 0.00 | 0.00 | 29 | 1015.3 |
| 20260831203044 | 100 | 290 | 1.0 | 8.0 | 0.00 | 0.00 | 0.00 | 29 | 1015.3 |
| 20260831202527 | 100 | 242 | 1.0 | 8.0 | 0.00 | 0.00 | 0.00 | 29 | 1015.5 |
| 20260831202027 | 102 | 155 | 2.0 | 8.0 | 0.00 | 0.00 | 0.00 | 29 | 1015.6 |
| 20260831201549 | 102 | 126 | 1.0 | 8.0 | 0.00 | 0.00 | 0.00 | 29 | 1015.5 |
| 20260831201028 | 102 | 174 | 1.0 | 10.0 | 0.00 | 0.00 | 0.00 | 29 | 1015.7 |
| 20260831200525 | 100 | 209 | 2.0 | 10.0 | 0.00 | 0.00 | 0.00 | 30 | 1015.9 |
| 20260831200050 | 99 | 160 | 2.0 | 8.0 | 0.00 | 0.00 | 0.00 | 32 | 1015.9 |
| 20260831195525 | 99 | 199 | 2.0 | 8.0 | 0.00 | 0.00 | 0.00 | 32 | 1015.9 |
| 20260831195025 | 99 | 188 | 1.0 | 8.0 | 0.00 | 0.00 | 0.00 | 32 | 1016.0 |
| 20260831194547 | 100 | 239 | 2.0 | 10.0 | 0.00 | 0.00 | 0.00 | 31 | 1016.1 |
| 20260831194023 | 99 | 240 | 2.0 | 10.0 | 0.00 | 0.00 | 0.00 | 31 | 1016.2 |
| 20260831193522 | 99 | 207 | 1.0 | 10.0 | 0.00 | 0.00 | 0.00 | 31 | 1016.2 |
| 20260831193052 | 100 | 50 | 1.0 | 7.0 | 0.00 | 0.00 | 0.00 | 31 | 1016.1 |
| 20260831192525 | 100 | 138 | 2.0 | 6.0 | 0.00 | 0.00 | 0.00 | 32 | 1016.1 |
| 20260831192032 | 99 | 82 | 1.0 | 9.0 | 0.00 | 0.00 | 0.00 | 32 | 1016.2 |
| 20260831191545 | 101 | 174 | 4.0 | 9.0 | 0.00 | 0.00 | 0.00 | 29 | 1016.3 |
| 20260831191024 | 103 | 205 | 2.0 | 11.0 | 0.00 | 0.00 | 0.00 | 30 | 1016.3 |
| 20260831190525 | 102 | 159 | 4.0 | 11.0 | 0.00 | 0.00 | 0.00 | 30 | 1016.3 |
| 20260831190105 | 101 | 142 | 2.0 | 10.0 | 0.00 | 0.00 | 0.00 | 30 | 1016.3 |
| 20260831185524 | 99 | 206 | 3.0 | 10.0 | 0.00 | 0.00 | 0.00 | 31 | 1016.4 |
| 20260831185023 | 101 | 203 | 1.0 | 9.0 | 0.00 | 0.00 | 0.00 | 30 | 1016.4 |
| 20260831184546 | 101 | 187 | 2.0 | 12.0 | 0.00 | 0.00 | 0.00 | 31 | 1016.4 |
| 20260831184022 | 102 | 203 | 4.0 | 12.0 | 0.00 | 0.00 | 0.00 | 30 | 1016.4 |
| 20260831183524 | 102 | 209 | 4.0 | 12.0 | 0.00 | 0.00 | 0.00 | 33 | 1016.5 |
| 20260831183057 | 101 | 136 | 1.0 | 8.0 | 0.00 | 0.00 | 0.00 | 33 | 1016.5 |
| 20260831182527 | 101 | 209 | 2.0 | 12.0 | 0.00 | 0.00 | 0.00 | 32 | 1016.7 |
| 20260831182026 | 101 | 159 | 3.0 | 12.0 | 0.00 | 0.00 | 0.00 | 32 | 1016.7 |
| 20260831181545 | 101 | 49 | 2.0 | 7.0 | 0.00 | 0.00 | 0.00 | 32 | 1016.7 |
| 20260831181026 | 101 | 152 | 2.0 | 7.0 | 0.00 | 0.00 | 0.00 | 34 | 1016.8 |
| 20260831180525 | 101 | 180 | 2.0 | 8.0 | 0.00 | 0.00 | 0.00 | 34 | 1017.0 |
| 20260831180046 | 100 | 220 | 1.0 | 8.0 | 0.00 | 0.00 | 0.00 | 36 | 1017.1 |
| 20260831175527 | 100 | 138 | 1.0 | 8.0 | 0.00 | 0.00 | 0.00 | 36 | 1017.0 |
| 20260831175025 | 100 | 0 | 1.0 | 7.0 | 0.00 | 0.00 | 0.00 | 36 | 1017.2 |
| 20260831174549 | 100 | 207 | 1.0 | 7.0 | 0.00 | 0.00 | 0.00 | 36 | 1017.3 |
| 20260831174024 | 99 | 190 | 2.0 | 7.0 | 0.00 | 0.00 | 0.00 | 36 | 1017.4 |
| 20260831173528 | 99 | 188 | 1.0 | 6.0 | 0.00 | 0.00 | 0.00 | 39 | 1017.5 |
| 20260831173048 | 99 | 189 | 1.0 | 6.0 | 0.00 | 0.00 | 0.00 | 38 | 1017.4 |
| 20260831172525 | 99 | 0 | 1.0 | 7.0 | 0.00 | 0.00 | 0.00 | 38 | 1017.7 |
| 20260831172025 | 99 | 74 | 1.0 | 7.0 | 0.00 | 0.00 | 0.00 | 38 | 1017.8 |
| 20260831171545 | 99 | 188 | 1.0 | 7.0 | 0.00 | 0.00 | 0.00 | 40 | 1017.8 |
| 20260831171025 | 98 | 150 | 2.0 | 6.0 | 0.00 | 0.00 | 0.00 | 40 | 1017.9 |
| 20260831170524 | 98 | 0 | 1.0 | 3.0 | 0.00 | 0.00 | 0.00 | 40 | 1017.9 |
| 20260831170043 | 98 | 0 | 1.0 | 3.0 | 0.00 | 0.00 | 0.00 | 40 | 1017.9 |
| 20260831165522 | 98 | 221 | 0.0 | 6.0 | 0.00 | 0.00 | 0.00 | 40 | 1017.9 |
| 20260831165024 | 98 | 225 | 1.0 | 6.0 | 0.00 | 0.00 | 0.00 | 40 | 1017.9 |
| 20260831164602 | 97 | 182 | 1.0 | 6.0 | 0.00 | 0.00 | 0.00 | 41 | 1017.9 |
| 20260831164026 | 97 | 202 | 1.0 | 11.0 | 0.00 | 0.00 | 0.00 | 41 | 1017.8 |
| 20260831163524 | 97 | 134 | 3.0 | 11.0 | 0.00 | 0.00 | 0.00 | 41 | 1017.8 |
| 20260831163049 | 96 | 171 | 1.0 | 7.0 | 0.00 | 0.00 | 0.00 | 42 | 1017.8 |
| 20260831162527 | 95 | 154 | 1.0 | 6.0 | 0.00 | 0.00 | 0.00 | 42 | 1017.8 |
| 20260831162026 | 95 | 130 | 1.0 | 4.0 | 0.00 | 0.00 | 0.00 | 42 | 1018.0 |
| 20260831161546 | 96 | 140 | 1.0 | 5.0 | 0.00 | 0.00 | 0.00 | 42 | 1017.9 |
| 20260831161024 | 96 | 126 | 1.0 | 9.0 | 0.00 | 0.00 | 0.00 | 41 | 1017.9 |
| 20260831160524 | 95 | 125 | 1.0 | 9.0 | 0.00 | 0.00 | 0.00 | 41 | 1018.0 |
| 20260831160050 | 94 | 155 | 1.0 | 6.0 | 0.00 | 0.00 | 0.00 | 41 | 1018.0 |
| 20260831155525 | 94 | 0 | 1.0 | 6.0 | 0.00 | 0.00 | 0.00 | 42 | 1018.0 |
| 20260831155027 | 94 | 188 | 1.0 | 6.0 | 0.00 | 0.00 | 0.00 | 42 | 1017.9 |
| 20260831154619 | 94 | 236 | 0.0 | 8.0 | 0.00 | 0.00 | 0.00 | 43 | 1017.9 |
| 20260831154024 | 93 | 157 | 1.0 | 8.0 | 0.00 | 0.00 | 0.00 | 44 | 1017.9 |
| 20260831153525 | 93 | 222 | 0.0 | 8.0 | 0.00 | 0.00 | 0.00 | 44 | 1017.8 |
| 20260831153047 | 92 | 0 | 1.0 | 8.0 | 0.00 | 0.00 | 0.00 | 45 | 1017.8 |
| 20260831152526 | 92 | 0 | 1.0 | 5.0 | 0.00 | 0.00 | 0.00 | 46 | 1017.8 |
| 20260831152023 | 91 | 0 | 1.0 | 4.0 | 0.00 | 0.00 | 0.00 | 45 | 1017.8 |
| 20260831151542 | 91 | 195 | 1.0 | 4.0 | 0.00 | 0.00 | 0.00 | 47 | 1017.8 |
| 20260831151026 | 91 | 172 | 1.0 | 5.0 | 0.00 | 0.00 | 0.00 | 47 | 1017.8 |
| 20260831150528 | 91 | 0 | 1.0 | 5.0 | 0.00 | 0.00 | 0.00 | 48 | 1017.7 |
| 20260831150047 | 90 | 0 | 1.0 | 5.0 | 0.00 | 0.00 | 0.00 | 48 | 1017.7 |
| 20260831145525 | 90 | 144 | 1.0 | 5.0 | 0.00 | 0.00 | 0.00 | 49 | 1017.7 |
| 20260831145025 | 90 | 190 | 1.0 | 7.0 | 0.00 | 0.00 | 0.00 | 49 | 1017.7 |
| 20260831144545 | 89 | 214 | 1.0 | 7.0 | 0.00 | 0.00 | 0.00 | 51 | 1017.7 |
| 20260831144025 | 88 | 222 | 0.0 | 2.0 | 0.00 | 0.00 | 0.00 | 53 | 1017.6 |
| 20260831143527 | 88 | 167 | 0.0 | 2.0 | 0.00 | 0.00 | 0.00 | 54 | 1017.7 |
| 20260831143109 | 87 | 0 | 0.0 | 2.0 | 0.00 | 0.00 | 0.00 | 54 | 1017.6 |
| 20260831142524 | 87 | 0 | 0.0 | 3.0 | 0.00 | 0.00 | 0.00 | 55 | 1017.6 |
| 20260831142025 | 87 | 223 | 1.0 | 3.0 | 0.00 | 0.00 | 0.00 | 56 | 1017.5 |
| 20260831141547 | 86 | 0 | 0.0 | 2.0 | 0.00 | 0.00 | 0.00 | 57 | 1017.5 |
| 20260831141024 | 86 | 235 | 0.0 | 3.0 | 0.00 | 0.00 | 0.00 | 58 | 1017.6 |
| 20260831140525 | 85 | 208 | 1.0 | 3.0 | 0.00 | 0.00 | 0.00 | 60 | 1017.6 |
| 20260831140046 | 85 | 153 | 0.0 | 5.0 | 0.00 | 0.00 | 0.00 | 61 | 1017.7 |
| 20260831135525 | 85 | 159 | 1.0 | 5.0 | 0.00 | 0.00 | 0.00 | 63 | 1017.6 |
| 20260831135027 | 84 | 0 | 1.0 | 4.0 | 0.00 | 0.00 | 0.00 | 64 | 1017.6 |
| 20260831134544 | 83 | 145 | 1.0 | 4.0 | 0.00 | 0.00 | 0.00 | 65 | 1017.6 |
| 20260831134022 | 83 | 153 | 0.0 | 4.0 | 0.00 | 0.00 | 0.00 | 65 | 1017.4 |
| 20260831133521 | 83 | 171 | 0.0 | 4.0 | 0.00 | 0.00 | 0.00 | 66 | 1017.4 |
| 20260831133047 | 82 | 184 | 0.0 | 5.0 | 0.00 | 0.00 | 0.00 | 67 | 1017.3 |
| 20260831132524 | 82 | 197 | 1.0 | 5.0 | 0.00 | 0.00 | 0.00 | 67 | 1017.2 |
| 20260831132026 | 82 | 136 | 0.0 | 4.0 | 0.00 | 0.00 | 0.00 | 68 | 1017.3 |
| 20260831131547 | 81 | 0 | 0.0 | 3.0 | 0.00 | 0.00 | 0.00 | 68 | 1017.2 |
| 20260831131024 | 81 | 0 | 0.0 | 3.0 | 0.00 | 0.00 | 0.00 | 69 | 1017.1 |
| 20260831130521 | 80 | 0 | 0.0 | 4.0 | 0.00 | 0.00 | 0.00 | 70 | 1017.2 |
| 20260831130052 | 80 | 0 | 0.0 | 4.0 | 0.00 | 0.00 | 0.00 | 71 | 1017.0 |
| 20260831125523 | 80 | 164 | 0.0 | 3.0 | 0.00 | 0.00 | 0.00 | 71 | 1016.9 |
| 20260831125025 | 80 | 145 | 0.0 | 5.0 | 0.00 | 0.00 | 0.00 | 71 | 1016.8 |
| 20260831124550 | 79 | 0 | 1.0 | 5.0 | 0.00 | 0.00 | 0.00 | 71 | 1016.8 |
| 20260831124024 | 79 | 163 | 0.0 | 4.0 | 0.00 | 0.00 | 0.00 | 72 | 1016.7 |
| 20260831123524 | 79 | 134 | 1.0 | 3.0 | 0.00 | 0.00 | 0.00 | 71 | 1016.7 |
| 20260831123048 | 79 | 190 | 0.0 | 2.0 | 0.00 | 0.00 | 0.00 | 71 | 1016.6 |
| 20260831122527 | 79 | 0 | 0.0 | 2.0 | 0.00 | 0.00 | 0.00 | 71 | 1016.5 |
| 20260831122021 | 79 | 165 | 0.0 | 2.0 | 0.00 | 0.00 | 0.00 | 71 | 1016.4 |
| 20260831121544 | 79 | 171 | 0.0 | 2.0 | 0.00 | 0.00 | 0.00 | 71 | 1016.3 |
| 20260831121026 | 79 | 184 | 1.0 | 3.0 | 0.00 | 0.00 | 0.00 | 71 | 1016.3 |
| 20260831120525 | 79 | 0 | 0.0 | 3.0 | 0.00 | 0.00 | 0.00 | 72 | 1016.2 |
| 20260831120056 | 79 | 0 | 0.0 | 1.0 | 0.00 | 0.00 | 0.00 | 71 | 1016.2 |
| 20260831115529 | 79 | 0 | 0.0 | 1.0 | 0.00 | 0.00 | 0.00 | 71 | 1016.0 |
| 20260831115024 | 80 | 0 | 0.0 | 1.0 | 0.00 | 0.00 | 0.00 | 71 | 1016.0 |
| 20260831114547 | 80 | 0 | 0.0 | 1.0 | 0.00 | 0.00 | 0.00 | 71 | 1016.0 |
| 20260831114026 | 80 | 0 | 0.0 | 1.0 | 0.00 | 0.00 | 0.00 | 70 | 1015.9 |
| 20260831113524 | 80 | 0 | 0.0 | 1.0 | 0.00 | 0.00 | 0.00 | 70 | 1015.9 |
| 20260831113107 | 80 | 214 | 0.0 | 1.0 | 0.00 | 0.00 | 0.00 | 70 | 1015.7 |
| 20260831112522 | 81 | 0 | 0.0 | 1.0 | 0.00 | 0.00 | 0.00 | 69 | 1015.7 |
| 20260831112024 | 81 | 0 | 0.0 | 1.0 | 0.00 | 0.00 | 0.00 | 69 | 1015.7 |
| 20260831111546 | 81 | 214 | 0.0 | 1.0 | 0.00 | 0.00 | 0.00 | 68 | 1015.6 |
| 20260831111024 | 81 | 214 | 0.0 | 2.0 | 0.00 | 0.00 | 0.00 | 68 | 1015.7 |
| 20260831110524 | 81 | 214 | 0.0 | 2.0 | 0.00 | 0.00 | 0.00 | 68 | 1015.4 |
| 20260831110047 | 81 | 212 | 0.0 | 2.0 | 0.00 | 0.00 | 0.00 | 68 | 1015.4 |
| 20260831105526 | 81 | 0 | 0.0 | 2.0 | 0.00 | 0.00 | 0.00 | 68 | 1015.4 |
| 20260831105024 | 81 | 178 | 0.0 | 2.0 | 0.00 | 0.00 | 0.00 | 68 | 1015.4 |
| 20260831104544 | 81 | 0 | 0.0 | 2.0 | 0.00 | 0.00 | 0.00 | 67 | 1015.4 |
| 20260831104025 | 81 | 0 | 0.0 | 3.0 | 0.00 | 0.00 | 0.00 | 68 | 1015.3 |
| 20260831103526 | 81 | 215 | 0.0 | 3.0 | 0.00 | 0.00 | 0.00 | 68 | 1015.4 |
| 20260831103051 | 81 | 191 | 0.0 | 1.0 | 0.00 | 0.00 | 0.00 | 68 | 1015.4 |
| 20260831102524 | 82 | 0 | 0.0 | 2.0 | 0.00 | 0.00 | 0.00 | 66 | 1015.4 |
| 20260831102025 | 82 | 0 | 0.0 | 2.0 | 0.00 | 0.00 | 0.00 | 66 | 1015.5 |
| 20260831101548 | 82 | 0 | 0.0 | 3.0 | 0.00 | 0.00 | 0.00 | 65 | 1015.5 |
| 20260831101025 | 82 | 0 | 0.0 | 3.0 | 0.00 | 0.00 | 0.00 | 65 | 1015.4 |
| 20260831100523 | 82 | 220 | 1.0 | 4.0 | 0.00 | 0.00 | 0.00 | 65 | 1015.3 |
| 20260831100043 | 83 | 0 | 1.0 | 4.0 | 0.00 | 0.00 | 0.00 | 64 | 1015.3 |
| 20260831095522 | 83 | 197 | 1.0 | 4.0 | 0.00 | 0.00 | 0.00 | 64 | 1015.3 |
| 20260831095024 | 83 | 316 | 1.0 | 4.0 | 0.00 | 0.00 | 0.00 | 64 | 1015.3 |
| 20260831094556 | 83 | 194 | 0.0 | 3.0 | 0.00 | 0.00 | 0.00 | 63 | 1015.2 |
| 20260831094024 | 83 | 173 | 0.0 | 4.0 | 0.00 | 0.00 | 0.00 | 63 | 1015.2 |
| 20260831093525 | 83 | 215 | 1.0 | 4.0 | 0.00 | 0.00 | 0.00 | 62 | 1015.2 |
| 20260831093050 | 83 | 0 | 0.0 | 2.0 | 0.00 | 0.00 | 0.00 | 61 | 1015.2 |
| 20260831092525 | 83 | 187 | 0.0 | 3.0 | 0.00 | 0.00 | 0.00 | 61 | 1015.1 |
| 20260831092023 | 83 | 210 | 1.0 | 4.0 | 0.00 | 0.00 | 0.00 | 61 | 1015.0 |
| 20260831091547 | 83 | 0 | 1.0 | 4.0 | 0.00 | 0.00 | 0.00 | 61 | 1015.0 |
| 20260831091023 | 83 | 0 | 0.0 | 4.0 | 0.00 | 0.00 | 0.00 | 60 | 1015.0 |
| 20260831090523 | 83 | 144 | 0.0 | 4.0 | 0.00 | 0.00 | 0.00 | 59 | 1014.9 |
| 20260831090056 | 83 | 0 | 0.0 | 4.0 | 0.00 | 0.00 | 0.00 | 59 | 1014.9 |
| 20260831085525 | 83 | 0 | 1.0 | 4.0 | 0.00 | 0.00 | 0.00 | 58 | 1014.8 |
| 20260831085025 | 83 | 186 | 1.0 | 2.0 | 0.00 | 0.00 | 0.00 | 58 | 1014.7 |
| 20260831084547 | 83 | 207 | 0.0 | 6.0 | 0.00 | 0.00 | 0.00 | 57 | 1014.7 |
| 20260831084026 | 83 | 0 | 1.0 | 6.0 | 0.00 | 0.00 | 0.00 | 57 | 1014.8 |
| 20260831083525 | 83 | 0 | 0.0 | 2.0 | 0.00 | 0.00 | 0.00 | 56 | 1014.8 |
| 20260831083045 | 83 | 208 | 0.0 | 2.0 | 0.00 | 0.00 | 0.00 | 56 | 1014.7 |
| 20260831082526 | 83 | 0 | 0.0 | 2.0 | 0.00 | 0.00 | 0.00 | 56 | 1014.7 |
| 20260831082023 | 83 | 0 | 0.0 | 2.0 | 0.00 | 0.00 | 0.00 | 56 | 1014.7 |
| 20260831081547 | 83 | 186 | 0.0 | 2.0 | 0.00 | 0.00 | 0.00 | 55 | 1014.7 |
| 20260831081025 | 84 | 237 | 0.0 | 3.0 | 0.00 | 0.00 | 0.00 | 55 | 1014.7 |
| 20260831080525 | 84 | 211 | 0.0 | 3.0 | 0.00 | 0.00 | 0.00 | 54 | 1014.7 |
| 20260831080049 | 84 | 154 | 1.0 | 4.0 | 0.00 | 0.00 | 0.00 | 55 | 1014.6 |
| 20260831075525 | 83 | 190 | 1.0 | 4.0 | 0.00 | 0.00 | 0.00 | 56 | 1014.6 |
| 20260831075023 | 83 | 201 | 0.0 | 4.0 | 0.00 | 0.00 | 0.00 | 57 | 1014.5 |
| 20260831074547 | 82 | 238 | 0.0 | 3.0 | 0.00 | 0.00 | 0.00 | 58 | 1014.5 |
| 20260831074024 | 82 | 219 | 0.0 | 3.0 | 0.00 | 0.00 | 0.00 | 59 | 1014.5 |
| 20260831073525 | 82 | 166 | 0.0 | 3.0 | 0.00 | 0.00 | 0.00 | 58 | 1014.5 |
| 20260831073046 | 82 | 0 | 0.0 | 1.0 | 0.00 | 0.00 | 0.00 | 58 | 1014.5 |
| 20260831072522 | 82 | 0 | 0.0 | 0.0 | 0.00 | 0.00 | 0.00 | 57 | 1014.5 |
| 20260831072027 | 83 | 0 | 0.0 | 0.0 | 0.00 | 0.00 | 0.00 | 59 | 1014.5 |
| 20260831071553 | 83 | 0 | 0.0 | 0.0 | 0.00 | 0.00 | 0.00 | 57 | 1014.4 |
| 20260831071027 | 83 | 0 | 0.0 | 1.0 | 0.00 | 0.00 | 0.00 | 57 | 1014.5 |
| 20260831070526 | 83 | 0 | 0.0 | 1.0 | 0.00 | 0.00 | 0.00 | 57 | 1014.5 |
| 20260831070048 | 83 | 0 | 0.0 | 0.0 | 0.00 | 0.00 | 0.00 | 57 | 1014.5 |
| 20260831065525 | 83 | 0 | 0.0 | 0.0 | 0.00 | 0.00 | 0.00 | 56 | 1014.6 |
| 20260831065025 | 83 | 0 | 0.0 | 0.0 | 0.00 | 0.00 | 0.00 | 56 | 1014.5 |
| 20260831064547 | 84 | 0 | 0.0 | 0.0 | 0.00 | 0.00 | 0.00 | 55 | 1014.5 |
| 20260831064023 | 84 | 0 | 0.0 | 1.0 | 0.00 | 0.00 | 0.00 | 55 | 1014.6 |